Miscellaneous Local Product
Issued by NWS Hastings, NE

Home | Current Version | Previous Version | Graphics & Text | Print | Product List | Glossary On
Versions: 1 2 3 4 5 6 7 8 9 10 11 12 13 14 15 16 17 18 19 20 21 22 23 24 25 26 27 28 29 30 31 32 33 34 35 36 37 38 39 40 41 42 43 44 45 46 47 48 49 50
000
AXUS43 KGID 290902
MISGRI

GID CWA HOURLY WEATHER ROUNDUP
NATIONAL WEATHER SERVICE HASTINGS NE
400 AM CDT SAT AUG 29 2015

NOTE: "FAIR" INDICATES FEW OR NO CLOUDS BELOW 12,000 FEET WITH NO
SIGNIFICANT WEATHER AND/OR OBSTRUCTIONS TO VISIBILITY.

...SOUTH CENTRAL NEBRASKA...

CITY           SKY/WX    TMP DP  RH WIND       PRES   REMARKS
GRAND ISLAND   FOG       56  56 100 CALM      30.06R VSB 1/2
HASTINGS       FOG       56  56 100 NW5       30.05S VSB 3/4
KEARNEY        CLEAR     61  55  82 W5        30.07R
ORD            FOG       54  54 100 CALM      30.05S VSB 3/4
YORK           CLOUDY    59  59 100 N10       30.04R
AURORA         PTCLDY    58  58 100 N6        30.05R
LEXINGTON      CLEAR     58  57  96 NW5       30.09S
HOLDREGE       CLEAR     58  56  92 NW5       30.07S
HEBRON         MOCLDY    61  58  90 NW7       30.02F

...NEBRASKA PANHANDLE...

CITY           SKY/WX    TMP DP  RH WIND       PRES   REMARKS
CHADRON        CLEAR     53  48  83 W3        30.10S HAZE
ALLIANCE       CLEAR     50  46  86 W3        30.15S
SCOTTSBLUFF    CLEAR     56  50  80 N3        30.17F
SIDNEY         CLEAR     52  45  77 SW8       30.20S

...WESTERN AND NORTH CENTRAL NEBRASKA...

CITY           SKY/WX    TMP DP  RH WIND       PRES   REMARKS
VALENTINE      CLEAR     57  56  96 SW5       30.06F FOG
AINSWORTH      CLEAR     58  58  97 SW5       30.08S
ONEILL         FOG       58  57  99 CALM      30.06R VSB 1/2
BROKEN BOW     CLEAR     56  54  93 CALM      30.08R
IMPERIAL       CLEAR     60  57  89 W6        30.15S
NORTH PLATTE   MOCLDY    52  51  97 W3        30.11S
MCCOOK         CLEAR     57  56  96 W5        30.11S

...EASTERN NEBRASKA...

CITY           SKY/WX    TMP DP  RH WIND       PRES   REMARKS
NORFOLK        CLOUDY    59  58  96 NE7       30.03S
SO SIOUX CITY  CLOUDY    62  57  83 N6        30.02R
TEKAMAH        CLOUDY    62  60  93 N10       30.01R
COLUMBUS       CLOUDY   N/A N/A N/A N3        30.04R
ALBION         CLOUDY    56  54  95 CALM      30.05R FOG
OMAHA EPPLEY   CLOUDY    63  61  93 N9        29.99R
MILLARD        CLOUDY    64  61  91 CALM      29.99R
LINCOLN        CLOUDY    63  60  90 N10       30.01R
NEBRASKA CITY  CLOUDY    63  63  99 N8        29.98R FOG
BEATRICE       CLOUDY    63  61  92 N5        30.00S
FALLS CITY     CLOUDY    65  64  97 NW6       29.96R

...NORTHERN KANSAS...

CITY           SKY/WX    TMP DP  RH WIND       PRES   REMARKS
GOODLAND       CLEAR     58  55  90 W7        30.17S
HILL CITY      CLEAR     59  57  93 NW5       30.08S
NORTON         SUNNY     55  52  88 W7        30.08S
PHILLIPSBURG   CLEAR     63  63 100 CALM      30.06S
SMITH CENTER   CLEAR     59  57  94 NW6       30.05F
HAYS           CLEAR     61  52  72 NW8       30.07R
RUSSELL        CLEAR     60  59  96 NW6       30.04R
CONCORDIA      MOCLDY    63  61  93 NW7       30.01F
SALINA         CLEAR     66  62  87 W7        30.01R
TOPEKA         PTCLDY    66  63  90 NW3       29.96R



USA.gov is the U.S. government's official web portal to all federal, state and local government web resources and services.